Location: El Centro
(32.7920°N, 115.5620°W)
Time: 21:31:10
(UTC-07:00)

Hamsat - Visible Passes

Search period start: 25 June 2016 00:00
Search period end: 05 July 2016 00:00
Orbit: 587 x 619 km, 97.6° (Epoch: 25 June)

Date Brightness Start Highest point End Pass type
(mag) Time Alt. Az. Time Alt. Az. Time Alt. Az.
25 Jun ? 04:51:15 10° NNE 04:55:16 40° E 04:59:13 10° S visible
26 Jun ? 05:03:10 10° NNE 05:07:22 59° E 05:11:29 10° S visible
29 Jun ? 04:06:35 10° E 04:07:31 11° E 04:08:27 10° ESE visible
30 Jun ? 04:17:12 10° ENE 04:19:42 15° E 04:22:10 10° SE visible
01 Jul ? 04:28:36 10° NE 04:31:51 21° E 04:35:03 10° SE visible
02 Jul ? 04:40:16 10° NE 04:43:58 30° E 04:47:38 10° SSE visible
03 Jul ? 04:52:04 10° NNE 04:56:05 42° E 05:00:02 10° S visible
04 Jul ? 05:04:00 10° NNE 05:08:10 62° E 05:12:17 10° S visible
